sat.trackr.live / text

‹ back to catalog

COSMOS 2539

NORAD 44457 · 2019-048A

PAYLOAD ACTIVE UNKNOWN

§ Identity

Operator
Country
CIS
Launch date
2019-08-05
Launch site
TYMSC
Launch vehicle
Mass (kg)
RCS (m²)

Purposes: comms

External: N2YO · Heavens-Above · Gunter

§ Orbital elements

Epoch: 2026-09-15T13:48:30.857760Z

Period
1,436.11 min
Inclination
0.0179°
Eccentricity
0.0000240
Mean motion
1.00270647 rev/d
Perigee alt
35,785.9 km
Apogee alt
35,787.9 km
Semi-major
42,165.1 km
B*
0.0000e+0
RAAN
123.9406°
Arg perigee
167.0007°
Mean anomaly
282.7338°
Rev number
2,613

§ Raw data

COSMOS 25391 44457U 19048A   26258.57535715  .00000075  00000+0  00000+0 0  99972 44457   0.0179 123.9406 0000240 167.0007 282.7338  1.00270647 26137

JSON: /api/v1/satellites/44457 · /tle

For live sub-satellite position, see the globe view (requires WebGL).

§ Visibility from observer

Set your observer location to see the next 7 days of passes ≥ 10°. The values pass through the URL so the page stays shareable.

No JS? Fill the form by hand. The geolocation button needs JavaScript.